2021-061E (49007 NORAD) Tracking and Keplerian Element Data

This shows tracking and keplerian element data for the satellite.

Feedback or suggestion? Click here.




ElementValue
Catalog49007
Name2021-061E
Epoch Orbit408
Epoch Day211.21703435
Epoch Year2021
RAAN278.027
Inclination97.537
Eccentricity0.0012707
Argument of Perigee181.2183
Mean Anonmoly264.0732
Mean Motion15.09913801
Decay Rate4.66E-06
L11 49007U 21061E 21211.21703435 .00000466 00000-0 32608-4 0 9991
L22 49007 97.5370 278.0270 0012707 181.2183 264.0732 15.09913801 4083

Live tracking and technical data element details for 2021-061E (NORAD 49007). 2021-061E can be tracked NOW for your location showing map with azimuth and elevation plus other details from your city location.

Track the satellite on the map from your city or location and see movement details for azimuth, elevation, latitude, longitude, range, height, and movement on the map or in text.







IsCatalogInMostPopularTable: catalog: 49007, numindb: 2
Update: records affected: 1



GetName: 49007 2021-061E

Hit Count: updated at: Sat, 31 Jul 2021 16:32:31 GMT